Weather History for Barking Sands, HI

Change the Weather History Date:

Monday, March 10, 2014

  Actual Average Record
Temperature  
Mean Temperature 78 °F -  
Max Temperature 79 °F 82 °F 87 °F (1977)
Min Temperature 77 °F 62 °F 58 °F (1954)
Cooling Degree Days 13    
Growing Degree Days 28 (Base 50)    
Moisture  
Dew Point 69 °F    
Average Humidity 75    
Maximum Humidity 78    
Minimum Humidity 72    
Precipitation  
Precipitation 0.00 in - - ()
Sea Level Pressure  
Sea Level Pressure 30.03 in    
Wind  
Wind Speed 4 mph (NNW)    
Max Wind Speed 10 mph    
Max Gust Speed -    
Visibility 9 miles    
Events      
Averages and records for this station are not official NWS values.
T = Trace of Precipitation, MM = Missing Value Source: NWS Daily Summary

Daily Weather History Graph

Daily Weather History Graph

Search for Another Location

Airport:

Trip Planner

Search our weather history database for the weather conditions in past years. The results will help you decide how hot, cold, wet, or windy it might be!

Date:

Astronomy

Mar. 10, 2014 Rise Set
Actual Time 6:52 AM HST 6:46 PM HST
Civil Twilight 6:29 AM HST 7:09 PM HST
Nautical Twilight 6:03 AM HST 7:34 PM HST
Astronomical Twilight 5:38 AM HST 8:00 PM HST
Moon 2:07 PM HST (3/10) 2:44 AM HST (3/10)
Length of Visible Light 12h 39m
Length of Day
11h 54m
Waxing Gibbous, 72% of the Moon is Illuminated
Mar 10
Waxing Gibbous
Mar 16
Full
Mar 23
Last Quarter
Mar 30
New
Apr 6
First Quarter

Hourly Weather History & Observations

Time (HST) Temp. Dew Point Humidity Pressure Visibility Wind Dir Wind Speed Gust Speed Precip Events Conditions
12:56 AM - - N/A% 30.06 in 10.0 mi ESE 3.5 mph - N/A   Clear
1:56 AM - - N/A% 30.05 in 10.0 mi SE 3.5 mph - 0.00 in   Partly Cloudy
2:56 AM - - N/A% 30.03 in 10.0 mi ESE 4.6 mph - 0.00 in   Mostly Cloudy
3:56 AM - - N/A% 30.02 in 10.0 mi Calm Calm - 0.00 in   Clear
4:56 AM - - N/A% 30.03 in 10.0 mi Calm Calm - N/A   Mostly Cloudy
5:56 AM - - N/A% 30.03 in 10.0 mi Calm Calm - 0.00 in   Partly Cloudy
6:56 AM - - N/A% 30.04 in 10.0 mi Calm Calm - N/A   Clear
7:56 AM - - N/A% 30.06 in 9.0 mi NE 4.6 mph - 0.00 in   Unknown
8:56 AM - - N/A% 30.07 in 9.0 mi NW 4.6 mph - 0.00 in   Unknown
9:56 AM - - N/A% 30.09 in 9.0 mi NNW 6.9 mph - 0.00 in   Unknown
10:56 AM - - N/A% 30.09 in 9.0 mi NNW 9.2 mph - 0.00 in   Unknown
11:11 AM - - N/A% 30.07 in 6.2 mi North 8.1 mph - 0.00 in   Unknown
11:48 AM - - N/A% 30.06 in 6.2 mi NNW 10.4 mph - 0.00 in   Unknown
11:56 AM - - N/A% 30.07 in 9.0 mi NNW 9.2 mph - 0.00 in   Unknown
12:56 PM - - N/A% 30.05 in 9.0 mi NNW 6.9 mph - 0.00 in   Unknown
1:11 PM - - N/A% 30.03 in 6.2 mi NW 6.9 mph - 0.00 in   Unknown
1:56 PM 79.0 °F 70.0 °F 74% 30.01 in 10.0 mi NNW 8.1 mph - 0.00 in   Mostly Cloudy
2:56 PM 79.0 °F 69.1 °F 72% 29.99 in 10.0 mi NW 9.2 mph - N/A   Mostly Cloudy
3:56 PM 77.0 °F 69.1 °F 76% 29.97 in 10.0 mi WNW 4.6 mph - N/A   Clear
4:45 PM 77.0 °F 69.8 °F 78% 29.97 in 10.0 mi West 5.8 mph - N/A   Mostly Cloudy
4:56 PM 77.0 °F 69.1 °F 76% 29.98 in 10.0 mi WNW 5.8 mph - N/A   Mostly Cloudy
5:56 PM - - N/A% 29.99 in 10.0 mi WNW 3.5 mph - 0.00 in   Mostly Cloudy
6:12 PM - - N/A% 29.99 in 10.0 mi NW 3.5 mph - N/A   Scattered Clouds
6:56 PM - - N/A% 30.01 in 9.0 mi North 4.6 mph - 0.00 in   Unknown
7:56 PM - - N/A% 30.03 in 10.0 mi North 3.5 mph - 0.00 in   Clear
8:56 PM - - N/A% 30.04 in 10.0 mi Calm Calm - N/A   Clear
9:56 PM - - N/A% 30.06 in 10.0 mi Calm Calm - 0.00 in   Clear
10:56 PM - - N/A% 30.06 in 10.0 mi Calm Calm - N/A   Clear
11:56 PM - - N/A% 30.06 in 10.0 mi East 3.5 mph - N/A   Clear